{"data":{"norad_id":43879,"epoch":"2026-05-24T12:57:51.640992Z","epoch_age_seconds":121560,"freshness":"FRESH","line1":"1 43879U 18111D   26144.54018103  .00072535  00000+0  86226-3 0  9990","line2":"2 43879  97.5894  78.0209 0006435  60.3502 299.8394 15.60894925407470","mean_motion":15.60894925,"eccentricity":0.0006435,"inclination_deg":97.5894,"raan_deg":78.0209,"arg_perigee_deg":60.3502,"mean_anomaly_deg":299.8394,"bstar":0.00086226,"rev_number":40747,"period_min":92.254768526459,"perigee_km":380.71863812411,"apogee_km":389.42288651422,"semimajor_km":6763.2077623192,"source":"CELESTRAK","updated_at":"2026-05-25T13:37:55.925699Z"}}